Flag for Australia Weather past 2 weeks in Townsville, Queensland, Australia

75 °F


Feels Like: 77 °F
Forecast: 69 / 78 °F
Wind: 16 mph from Southeast

Location: Townsville Amo

Current Time: Oct 7, 2015 at 10:50:26 PM

Latest Report: Oct 7, 2015 at 10:00 PM

Visibility: N/A

Pressure: 30.18 "Hg

Humidity: 65%

Dew point: 63 °F

Location of TownsvilleLocation

Historic Weather in Townsville — Graph


Townsville temperature yesterday

Maximum temperature yesterday: 84 °F (at 11:30 AM)
Minimum temperature yesterday: 70 °F (at 1:00 AM)
Average temperature yesterday: 76 °F

Past Weeks' High & Low Weather Summary

High84 °F (Sep 23, 11:30 AM)94% (Oct 1, 6:00 AM)30.30 "Hg (Oct 1, 6:00 AM)
Low59 °F (Sep 27, 6:00 AM)33% (Sep 23, 3:30 PM)29.92 "Hg (Sep 23, 3:30 PM)
Average74 °F61%30.11 "Hg
* Reported Sep 22 9:00 PM — Oct 7 9:30 PM, Townsville, Weather by CustomWeather, © 2015

Note: Actual official high and low records may vary slightly from our data, if they occured in-between our weather recording intervals... More about our weather records


Townsville weather history for previous 24 hours

Time TempWeatherWind HumidityBarometerVisibility
9:30 PM
Wed, Oct 7
73 °FPassing clouds.16 mph74%30.18 "HgN/A
9:00 PM73 °FClear.15 mph69%30.18 "HgN/A
8:30 PM75 °FClear.15 mph65%30.18 "HgN/A
8:00 PM75 °FClear.18 mph65%30.18 "HgN/A
7:30 PM75 °FClear.16 mph61%30.15 "HgN/A
7:00 PM75 °FClear.17 mph65%30.15 "HgN/A
6:30 PM75 °FClear.18 mph65%30.15 "HgN/A
6:00 PM75 °FSunny.17 mph65%30.12 "HgN/A
5:30 PM77 °FPassing clouds.15 mph61%30.12 "HgN/A
5:00 PM79 °FPassing clouds.18 mph54%30.12 "HgN/A
4:30 PM79 °FSunny.22 mph58%30.12 "HgN/A
4:00 PM81 °FPassing clouds.20 mph51%30.09 "HgN/A
3:30 PM81 °FPassing clouds.21 mph54%30.09 "HgN/A
3:00 PM82 °FPassing clouds.22 mph45%30.09 "HgN/A
2:30 PM82 °FPassing clouds.23 mph45%30.09 "HgN/A
2:00 PM82 °FPassing clouds.21 mph45%30.09 "HgN/A
1:00 PM84 °FPassing clouds.20 mph40%30.12 "HgN/A
12:30 PM84 °FPassing clouds.20 mph40%30.15 "HgN/A
12:00 PM82 °FPassing clouds.23 mph42%30.15 "HgN/A
11:02 AM82 °FPassing clouds.20 mph45%30.18 "HgN/A
10:30 AM81 °FPassing clouds.16 mph51%30.18 "HgN/A
10:00 AM81 °FPassing clouds.17 mph51%30.18 "HgN/A
9:30 AM81 °FPassing clouds.18 mph48%30.18 "HgN/A
9:00 AM81 °FScattered clouds.17 mph51%30.18 "HgN/A
8:30 AM79 °FSunny.16 mph54%30.18 "HgN/A
8:00 AM77 °FPassing clouds.15 mph61%30.18 "HgN/A
7:30 AM75 °FPassing clouds.13 mph65%30.15 "HgN/A
7:00 AM73 °FPassing clouds.10 mph69%30.15 "HgN/A
6:30 AM72 °FScattered showers. Passing clouds.8 mph73%30.15 "HgN/A
6:00 AM70 °FPassing clouds.8 mph78%30.15 "HgN/A
5:30 AM70 °FPartly cloudy.8 mph78%30.12 "HgN/A
5:00 AM70 °FSprinkles. Partly cloudy.8 mph78%30.12 "HgN/A
4:30 AM70 °FPassing clouds.8 mph78%30.12 "HgN/A
4:00 AM70 °FClear.9 mph78%30.12 "HgN/A
3:30 AM70 °FPartly cloudy.8 mph78%30.12 "HgN/A
3:00 AM72 °FSprinkles. Partly cloudy.7 mph73%30.12 "HgN/A
2:30 AM72 °FPartly cloudy.7 mph73%30.12 "HgN/A
2:00 AM72 °FPassing clouds.9 mph73%30.12 "HgN/A
1:30 AM72 °FPartly cloudy.12 mph73%30.12 "HgN/A
1:00 AM73 °FMostly cloudy.14 mph69%30.12 "HgN/A
12:30 AM72 °FSprinkles. Partly cloudy.9 mph78%30.15 "HgN/A
12:00 AM73 °FPartly cloudy.13 mph69%30.15 "HgN/A
11:30 PM
Tue, Oct 6
73 °FPassing clouds.13 mph69%30.15 "HgN/A
11:00 PM73 °FPassing clouds.12 mph69%30.15 "HgN/A
10:30 PM73 °FPassing clouds.15 mph69%30.15 "HgN/A
10:00 PM73 °FPassing clouds.13 mph69%30.15 "HgN/A
Weather by CustomWeather, © 2015

See weather overviewHow to use our weather pages